Location: *
(38.9555°S, 57.3572°E)
Time: 01:51:13
(UTC+00:00)

Cosmos 1455 Rocket - Pass Details

Date: 15 July 2020
Orbit: 606 x 629 km, 82.5° (Epoch: 06 August)

Event Time Altitude Azimuth Distance (km) Brightness Sun altitude
Rises 13:42:36 0° 352° (N) 2,910 7.0 -7.0°
Reaches altitude 10° 13:44:49 10° 350° (N) 2,011 6.1 -7.4°
Maximum altitude 13:49:18 81° 263° (W) 650 3.3 -8.2°
Drops below altitude 10° 13:53:49 10° 175° (S) 2,033 5.5 -9.0°
Sets 13:56:05 0° 173° (S) 2,945 6.3 -9.5°
